www.pogodaiklimat.ru

Погода и климат >> Архив погоды >> Узбекистан >> Ташкент


АРХИВ ПОГОДЫ в Ташкенте

Время (UTC), дата Ветер
(напр.,м/с)
 
Видим.   Явления Облачность Т
(С)
Тd
(С)
f
(%)
Тe
(С)
Тes
(С)
Комфортность P
(гПа)
Po
(гПа)
Тmin
(С)
Tmax
(С)
R
(мм)
R24
(мм)
S
(см)
09 12.06 ЮЗ 2 10 км 3/1 1000 м
[Cu hum Ci fib]
+27.3 +5.8 25 +26 +42 жарко 1012.6 958.4
12 12.06 ЮЗ 2 10 км ясно +28.2 +4.0 21 +27 +32 жарко 1011.7 957.6
15 12.06 В 1 10 км 1/0
[Ci fib]
+25.5 +9.8 37 +26 +26 жарко 1011.4 957.0 +29.5
18 12.06 С 1 10 км ясно +20.4 +9.3 49 +23 +23 комфорт 1012.5 957.0 +24.5
21 12.06 СВ 1 10 км ясно +17.9 +10.0 60 +19 +19 по сезону 1012.2 956.3
00 13.06 СВ 1 50 км ясно +16.7 +9.9 64 +18 +18 по сезону 1011.4 955.4
03 13.06 В 1 10 км ясно +24.8 +9.9 39 +26 +33 жарко 1010.1 955.5
06 13.06 З 2 10 км ясно +28.6 +7.8 27 +28 +46 жарко 1008.9 955.1 +16.2
09 13.06 З 1 50 км 1/1 1000 м
[Cu hum]
+31.5 +5.1 19 +29 +48 жарко 1006.8 953.5
12 13.06 штиль 0 50 км ясно +32.2 +0.6 13 +29 +37 жарко 1005.0 951.9
15 13.06 СЗ 1 50 км ясно +27.6 +8.6 30 +27 +27 жарко 1005.3 951.5 +32.5
18 13.06 штиль 0 10 км ясно +23.2 +10.5 45 +25 +25 комфорт 1005.9 951.3 +32.5
21 13.06 10 км ясно +19.4 +10.2 55 1005.8 950.5
00 14.06 С 1 10 км ясно +18.1 +10.9 63 +19 +19 по сезону 1005.6 950.2
03 14.06 СВ 1 50 км ясно +24.4 +10.6 42 +26 +33 жарко 1005.3 951.0
06 14.06 В 1 10 км 1/1 600 м
[Cu hum]
+30.0 +7.7 25 +29 +48 жарко 1004.3 951.0 +17.9
09 14.06 Ю 1 10 км 3/3 600 м
[Cu hum]
+32.4 +2.5 15 +30 +44 жарко 1003.0 950.1
12 14.06 СЗ 2 10 км 6/3 600 м
[Cu hum Ac lent Ci fib]
+32.7 +2.9 15 +30 +33 жарко 1002.9 950.0
15 14.06 СВ 1 10 км 8/3 600 м
[Cu hum Ac lent Ci fib]
+27.4 +7.4 28 +27 +27 жарко 1004.2 950.4 +34.0
18 14.06 СВ 1 10 км 8/0
[Ac lent]
+23.6 +10.9 45 +25 +25 комфорт 1004.5 950.1 +34.0
21 14.06 В 1 10 км 9/0
[Ac lent Ci fib]
+22.4 +7.7 39 +23 +23 комфорт 1003.8 949.2
00 15.06 В 1 10 км 9/8 600 м
[Cb calv Ac lent]
+23.6 +8.2 37 +24 +24 комфорт 1004.2 949.8
03 15.06 В 2 10 км 9/9 600 м
[Cb calv]
+24.3 +7.7 35 +25 +25 комфорт 1005.8 951.4
06 15.06 С 2 10 км {ливн. осадки} 10/10 1000 м
[Cu Sc]
+26.2 +11.0 39 +27 +27 жарко 1007.4 953.3 +22.2
09 15.06 ЮЗ 2 10 км 9/6 1000 м
[Cu med, cong Ac As Ci sp]
+29.4 +8.9 28 +29 +33 жарко 1006.9 953.3
12 15.06 Ю 3 50 км 3/3 1000 м
[Cu hum Ci fib]
+29.9 +6.8 23 +29 +32 жарко 1006.4 952.9
15 15.06 В 2 50 км 9/3 1000 м
[Cu hum Ac lent Ci]
+27.8 +7.3 27 +27 +27 жарко 1006.1 952.3 +30.4
18 15.06 Ю 2 10 км 3/0
[Ac trans Ci fib]
+22.0 +9.4 45 +24 +24 комфорт 1007.0 952.2 +30.4 0.0
21 15.06 С 1 10 км ясно +20.6 +8.6 46 +23 +23 комфорт 1007.0 951.9
00 16.06 штиль 0 10 км 1/0
[Ac trans]
+18.3 +11.0 62 +19 +19 по сезону 1007.9 952.3
03 16.06 С 2 10 км ясно +24.8 +9.4 38 +26 +32 жарко 1008.3 953.9
06 16.06 В 1 10 км ясно +30.0 +6.4 23 +29 +50 жарко 1007.5 954.0 +17.7
09 16.06 ЮЗ 2 10 км ясно +31.4 +5.3 19 +29 +47 жарко 1006.9 953.6
12 16.06 СЗ 1 10 км ясно +31.7 +4.3 18 +29 +36 жарко 1006.5 953.3
15 16.06 ЮЗ 1 10 км ясно +29.0 +5.5 23 +28 +28 жарко 1006.7 953.0 +32.3
18 16.06 З 2 10 км ясно +23.4 +4.5 29 +23 +23 комфорт 1007.7 953.0 +32.3
21 16.06 З 2 10 км ясно +19.6 +4.0 36 +21 +21 комфорт 1008.8 953.4
00 17.06 З 1 50 км ясно +17.2 +5.1 45 +18 +18 по сезону 1009.1 953.2
03 17.06 ЮВ 2 10 км ясно +21.7 +6.8 38 +22 +29 комфорт 1009.1 954.1
06 17.06 Ю 1 10 км ясно +26.4 +5.1 26 +26 +47 жарко 1008.3 954.1 +17.0
09 17.06 З 1 10 км ясно +30.4 +3.6 18 +28 +49 жарко 1006.3 952.9
12 17.06 ЮЗ 1 50 км ясно +32.3 +2.7 15 +29 +36 жарко 1004.6 951.5
15 17.06 З 1 50 км ясно +27.8 +7.8 28 +27 +27 жарко 1004.8 951.1 +32.5
18 17.06 СЗ 1 10 км ясно +23.2 +6.2 33 +24 +24 комфорт 1006.0 951.4 +32.5
21 17.06 С 1 10 км ясно +19.0 +6.4 44 +21 +21 комфорт 1006.4 951.0
00 18.06 С 1 50 км ясно +17.1 +9.0 59 +18 +18 по сезону 1007.1 951.4
03 18.06 штиль 0 50 км ясно +25.8 +8.6 34 +26 +35 жарко 1006.1 952.0
06 18.06 З 1 50 км 3/0
[Ci fib]
+30.7 +9.4 27 +30 +50 жарко 1005.1 951.9 +17.0
09 18.06 З 2 50 км 6/3
[Cu hum Ci fib]
+33.1 +2.5 14 +30 +41 жарко 1004.1 951.3
12 18.06 З 2 50 км 8/4 600 м
[Cu hum Ci fib]
+33.2 +2.9 15 +30 +33 жарко 1003.4 950.6
15 18.06 СЗ 2 50 км 1/0
[Ci fib]
+29.1 +3.4 19 +27 +27 жарко 1004.7 951.2 +33.8
18 18.06 СЗ 2 10 км ясно +24.8 +1.3 21 +24 +24 комфорт 1006.6 952.2 +33.8
21 18.06 С 1 10 км 4/0
[Ci fib]
+21.5 +2.1 28 +21 +21 комфорт 1006.6 951.6
00 19.06 СЗ 1 50 км 8/0
[Ac lent Ci fib]
+18.5 +7.0 47 +20 +20 по сезону 1007.1 951.5
03 19.06 ЮВ 1 50 км 9/0
[Ac lent Ci]
+24.7 +9.5 38 +25 +30 комфорт 1006.4 952.1
06 19.06 Ю 2 10 км 8/0
[Ac lent Ci fib]
+29.8 +1.9 17 +27 +36 жарко 1005.4 951.9 +18.0

 

Местоположение метеостанции Ташкент (Ташкентская область, Узбекистан): широта 41.27 долгота 69.27 высота над уровнем моря 466 м.

В архиве по умолчанию представлена погода в Ташкенте за последнюю неделю. Архивные данные за месяц целиком и за предыдущие месяцы, начиная с января 2011 года, Вы можете получить, выбрав интересующий диапазон дат из раскрывающегося списка и нажав кнопку "Ввод!".


*Определитесь, кто Вы:
робот инопланетянин человек

Внимание! Время в таблицах - всемирное. Для получения местного времени необходимо прибавить поправку, которая равна 5 ч.

Смотрите также архив погоды в соседних городах и на ближайших метеорологических станциях:

Погода в Каунчи (Ташкентская область, Узбекистан) (31 км)
Погода в Туябугузе (Ташкентская область, Узбекистан) (37 км)
Погода в Келесе (Южно-Казахстанская область, Казахстан) (38 км)
Погода в Красноярской (Южно-Казахстанская область, Казахстан) (54 км)
Погода в Казыгурте (Южно-Казахстанская область, Казахстан) (55 км)
Погода в Дуканте (Ташкентская область, Узбекистан) (68 км)
Погода в Чимгане (Ташкентская область, Узбекистан) (70 км)
Погода в Сырдарье (Сырдарьинская область, Узбекистан) (70 км)
Погода в Ангрене (Ташкентская область, Узбекистан) (82 км)
Погода в Жетысае (Южно-Казахстанская область, Казахстан) (96 км)

Пояснения к столбцам:

Ветер - указаны скорость ветра в м/с - средняя за 10 мин, порывы в срок и между сроками (в фигурных скобках) и направление, откуда дует ветер: С - северный, СВ - северо-восточный, В - восточный, ЮВ - юго-восточный, Ю - южный, ЮЗ - юго-западный, З - западный, СЗ - северо-западный.
Видимость - горизонтальная дальность видимости в метрах или километрах. При видимости от 1 до 10 км при отсутствии осадков обычно наблюдается дымка, при ухудшении видимости до 1 км и менее - туман. В сухую погоду видимость может ухудшаться дымом, пылью или мглою.
Явления - указаны атмосферные явления, наблюдавшиеся в срок или в последний час перед сроком; фигурными скобками обозначены явления, наблюдавшиеся между сроками (за 1-3 часа до срока); квадратными скобками обозначены град или гололедные отложения с указанием их диаметра в мм.
Облачность - указаны через наклонную черту общая и нижняя облачность в баллах и высота нижней границы облаков в метрах; квадратными скобками обозначены формы облаков: Ci - перистые, Cs - перисто-слоистые, Cc - перисто-кучевые, Ac - высококучевые, As - высокослоистые, Sc - слоисто-кучевые, Ns - слоисто-дождевые, Cu - кучевые, Cb - кучево-дождевые. Подробнее классификацию облаков см. в Атласе облаков (PDF).
T - Температура воздуха - температура, измеренная на высоте 2 м над землей.
Td - Температура точки росы - температура, при понижении до которой содержащийся в воздухе водяной пар достигнет насыщения.
f - Относительная влажность воздуха - влажноcть воздуха, измеренная на высоте 2 м над землей.
Te - Эффективная температура - температура, которую ощущает одетый по сезону человек в тени. Характеристика душности погоды. При расчете учитывается влияние влажности воздуха и скорости ветра на теплоощущения человека.
Tes - Эффективная температура на солнце - температура, которую ощущает человек, с поправкой на солнечный нагрев. Характеристика знойности погоды. Зависит от высоты солнца над горизонтом, облачности и скорости ветра. Ночью, в пасмурную погоду, а также при ветре 12 м/с и более поправка равна нулю.
P - Атмосферное давление - приведенное к уровню моря атмосферное давление.
Po - Атмосферное давление - измеренное на уровне метеостанции атмосферное давление.
Tmin - Минимальная температура - минимум температуры воздуха на высоте 2 м над землей.
Tmax - Максимальная температура - максимум температуры воздуха на высоте 2 м над землей.
R - Количество осадков - Количество выпавших осадков за период времени, мм. При наведении курсора мыши на число - период времени, за который выпало указанное количество осадков.
R24 - Количество осадков - Количество выпавших осадков за 24 часа, мм.
S - Снежный покров - Высота снежного покрова, см. При наведении курсора мыши на число - состояние снежного покрова и степень покрытия местности в баллах.